Vertical_Velocity
2 1 2 2 2 1 0 0 -0 0 0 0 -0 -0 -1 -1 -1 -1 2 3 2 0 0 0 -0 1 4 5 3 0 0 -0 -1 -1 -1 -1 -1 -0 0 -1 -1 -0 0 1 1 1 1 1 1 0 -0 0 1 1 1 1 1 1 0 0 0 1 1 2 1 1 1 2 1 2 6 1 -0 -0 0 1 1 1 1 1 0 0 -0 -0 -0 -0 -0 -0 -0 -0 0 0 -0 -0 -0 -0 -1 -1 -1 -1 -1 -1 -1
-0 0 2 2 1 1 0 -0 -0 -0 -0 0 0 -0 -0 -0 -1 -0 3 2 1 -0 -1 1 2 2 5 5 4 3 1 -0 -0 -0 -0 -1 -1 -0 3 2 0 -1 -0 1 1 1 0 1 1 0 -0 -0 0 1 1 1 1 1 1 0 0 1 1 2 1 1 1 0 -0 0 2 0 -0 -0 0 1 1 1 1 1 1 0 0 0 -0 -0 -0 -0 -0 -0 0 0 0 0 -0 -0 -0 -0 -0 -1 -1 -0 -0
1 2 1 1 1 1 1 0 0 0 0 0 1 1 0 0 -0 -0 1 2 3 3 1 3 4 5 7 2 1 1 -1 -1 -1 -0 -0 -0 -1 -1 -0 0 -1 -1 2 5 5 5 3 1 0 0 0 0 0 0 1 1 1 1 1 1 1 1 1 2 2 1 0 5 4 2 -0 -1 -0 -0 -0 0 1 1 1 1 1 1 0 0 0 0 -0 -0 -0 -0 0 0 0 0 0 -0 -0 -0 -0 -0 -0 -0 -0
4 3 2 2 2 2 1 1 1 1 1 1 1 1 1 1 1 0 -0 1 2 2 -0 0 2 5 7 1 -0 -0 1 -2 -2 -1 -1 -0 -0 -1 -1 -2 -1 2 6 6 4 2 2 -0 -0 0 1 0 0 0 0 0 1 1 1 1 1 1 1 2 2 1 1 2 4 3 0 -1 3 6 2 -0 -1 0 1 1 1 1 1 0 0 0 0 -0 -0 -0 0 0 0 0 0 0 -0 -0 -0 -0 -0 -0 -0
1 1 1 2 2 2 2 2 2 1 0 1 1 1 2 2 2 1 0 0 1 1 -1 -1 -0 1 3 -1 -0 2 5 2 0 -1 -1 -0 0 0 -0 -2 1 5 5 3 1 0 3 0 -1 -1 -0 0 0 -0 -0 -0 0 1 1 1 1 1 1 2 2 1 1 1 1 1 2 0 2 6 10 5 1 -0 0 1 1 1 1 1 1 0 0 0 0 0 0 0 1 1 0 0 -0 -0 -0 -0 -0 -0 -0
1 1 1 2 2 2 2 2 1 1 1 1 1 1 2 2 2 2 1 1 1 1 1 0 -0 -0 -1 -1 2 4 3 0 -0 -0 0 1 4 5 2 -1 -0 1 -1 -0 -0 -1 0 2 2 1 -0 -0 -0 -0 -0 -0 -0 0 1 1 0 0 1 1 1 1 1 1 1 2 7 3 2 3 7 6 2 -1 0 1 1 1 1 1 1 1 0 0 0 0 1 1 1 1 1 0 -0 -0 -0 -0 -0 -0 -0
3 3 4 2 2 2 2 1 1 1 1 2 2 2 2 2 2 2 1 1 2 2 1 1 1 0 1 -1 -0 0 -1 -1 -0 1 1 3 6 8 5 5 5 4 -1 -1 -1 -1 -2 -2 2 4 0 -1 -1 -0 -1 -0 -0 0 0 0 0 -0 0 0 0 1 1 1 1 2 7 3 1 2 3 3 4 4 1 1 1 2 2 1 1 1 1 1 1 1 1 1 1 1 1 1 0 -0 -0 -0 -0 -0 -0
3 5 6 4 2 1 2 1 1 1 1 2 4 5 2 2 2 2 2 2 2 2 2 2 1 1 2 -0 -2 -3 -2 -1 -0 1 -0 4 6 7 5 6 6 4 -0 -0 -0 -0 -1 -2 0 2 2 0 -1 -1 -1 -1 -0 -0 0 0 0 -0 -0 -0 -0 0 1 1 1 0 1 1 2 2 1 0 1 3 5 2 2 2 2 2 2 2 1 1 1 1 1 1 1 1 1 1 1 0 0 0 0 -0 -0
3 5 7 7 4 1 1 1 1 1 1 2 2 2 2 2 2 2 2 1 1 1 1 1 1 1 1 -0 -2 -3 -1 -0 1 1 -1 2 4 6 5 6 4 1 -1 -0 -0 0 0 -0 -1 -1 1 0 -1 -1 -1 -1 -1 -0 -0 0 0 -0 -0 -0 -1 -0 0 0 -0 -0 1 2 2 2 2 1 1 1 2 2 2 1 1 2 2 2 2 2 1 1 1 1 1 1 1 1 1 1 0 0 0 0 -0
2 3 4 3 2 -0 0 -0 -0 0 1 1 1 1 1 1 2 2 2 1 1 0 1 1 1 1 2 -0 -1 -1 -2 -0 2 2 -0 -1 0 2 5 4 2 -0 -2 -1 -0 0 1 1 0 -0 -0 -0 -1 -1 -1 -1 -1 -1 -0 -0 0 0 -0 -1 -1 -1 -0 -0 -1 -0 1 2 2 2 2 1 1 1 2 2 2 2 1 1 2 2 2 2 1 1 1 1 1 1 1 1 1 1 0 0 0 0 0
-0 -1 -1 -0 -0 -0 -1 -1 -1 -1 -0 0 1 1 0 3 3 2 2 2 1 1 1 1 1 1 2 1 0 -0 -1 -2 -2 -1 -0 -1 -2 -2 2 1 -0 -1 -1 -0 0 1 1 0 -0 -0 -0 -0 -0 -1 -1 -1 -1 -1 -1 -0 -0 0 -0 -1 -1 -1 -1 -1 -1 -1 0 1 2 2 2 2 2 2 2 2 2 2 2 1 2 2 2 2 2 1 1 1 1 1 1 1 1 1 0 0 0 0 0
-1 -2 -3 0 2 2 -1 -2 -2 -2 -1 -0 0 1 1 4 4 3 3 2 2 2 1 1 1 1 1 1 1 1 -0 -1 -1 -1 -0 -0 -1 -1 -1 -1 -1 -1 -0 0 0 0 0 -1 -0 1 -0 -0 -0 -0 -1 -1 -1 -1 -1 -1 -0 -0 -0 -0 -0 -1 -1 -1 -1 -1 -0 1 1 1 2 2 2 2 2 2 2 2 2 2 2 2 2 2 2 2 1 1 1 0 0 0 0 0 0 0 0 0 0
-1 -1 -1 -0 -0 -0 -1 -1 -1 -1 -1 -1 -0 1 2 2 2 2 2 2 2 2 2 1 1 1 1 1 1 2 1 0 -0 -0 0 0 -0 -0 -0 -0 -0 -0 -0 -0 0 0 0 -1 -1 -1 -1 -0 -0 -1 -1 -1 -1 -1 -1 -1 -1 -1 -1 -0 -0 -0 -0 -0 -1 -1 -0 0 1 1 1 2 2 2 2 2 2 2 2 2 2 2 2 2 2 2 1 1 1 0 0 0 0 0 0 0 0 0 0
0 -1 -0 -0 -0 -0 -0 -1 -1 -0 -0 0 0 0 1 0 -0 0 1 1 1 1 1 1 1 1 1 1 2 2 2 1 0 0 1 0 0 -0 -0 -0 -0 -0 -1 -0 -0 -0 -0 -0 -2 -2 1 -0 -1 -1 -2 -2 -2 -1 -1 -1 -1 -1 -1 -1 -0 -0 0 0 -0 -0 -0 0 1 1 1 1 1 1 1 1 1 2 2 2 2 2 2 2 2 2 2 1 1 0 0 0 -0 -0 -0 -0 0 0 0
-0 -0 2 1 1 -0 -0 0 1 1 1 1 1 0 -0 -0 -0 -0 -0 0 0 1 1 1 1 1 1 1 1 2 2 1 1 1 1 0 0 0 -0 -0 -0 -0 -1 -1 -1 -1 -0 0 -0 -1 -0 -0 -1 -1 -1 -2 -2 -1 -1 -1 -1 -1 -1 -1 -1 -0 0 0 0 -0 0 1 1 1 1 1 1 1 1 2 2 2 1 1 1 1 1 1 2 2 2 2 1 1 0 0 -0 -0 -1 -1 -0 -0 0
-1 1 6 3 1 0 0 1 1 1 1 1 1 0 -0 -0 -0 -0 -1 -1 -0 -0 0 1 1 1 1 1 1 1 1 1 1 1 2 1 0 0 1 0 0 0 -0 -1 -1 -1 -0 -0 0 0 0 0 -0 -0 -1 -1 -1 -1 -1 -1 -1 -2 -2 -2 -1 -0 0 0 0 0 1 2 2 2 2 1 1 3 9 11 10 7 5 1 0 0 1 1 1 1 1 1 1 1 0 0 -0 -0 -1 -1 -1 -0 0
2 3 5 1 -0 0 1 4 3 1 -0 0 0 0 0 0 0 0 -0 -1 -1 -1 -1 -0 0 0 1 1 1 1 1 1 1 1 0 -0 0 1 1 1 1 0 -0 -1 -1 -0 0 -0 -1 -0 -0 0 0 -0 -0 -0 -0 -0 -0 -1 -1 -1 -2 -2 -2 -1 -0 0 1 2 5 7 5 3 1 1 1 3 12 13 13 13 12 5 1 -1 -0 1 1 1 1 1 1 1 0 0 -0 -0 -1 -1 -1 -1 -0
8 6 1 -1 -1 -0 2 7 5 1 -1 -0 -0 -0 0 0 1 0 0 -0 -1 -1 -1 -1 -0 -0 0 1 1 1 1 1 1 1 0 -0 0 0 1 1 1 1 0 0 0 0 0 0 -0 -1 -1 -1 -1 -1 -0 -0 0 0 0 -0 -1 -1 -2 -2 -2 -1 -1 -0 2 6 12 13 9 4 0 1 -1 -1 4 4 5 7 10 9 5 0 -1 -0 0 0 1 1 1 0 0 0 -0 -0 -1 -1 -1 -1 -1
7 4 -1 -1 -1 0 3 6 4 -0 -1 -1 -0 -0 0 1 1 1 0 0 -0 -0 -0 -0 -0 -0 0 1 1 1 1 1 1 1 1 1 1 1 1 1 1 1 1 1 1 1 0 0 0 -0 -0 -1 -1 -1 -1 -0 -0 0 -0 -0 -0 -0 -1 -1 -1 -1 -1 -0 3 8 14 11 7 4 -0 0 -0 -1 0 -1 -2 -0 4 7 5 1 -2 -1 -1 -0 0 0 0 0 0 -0 -0 -0 -1 -1 -1 -1 -1
2 1 -1 0 -0 -0 2 2 0 -1 -1 -1 -1 -1 -0 0 1 1 1 0 0 0 0 0 0 0 0 1 0 0 1 1 1 1 2 2 1 1 1 1 1 1 1 1 1 1 1 0 0 0 0 -0 -1 -1 -1 -1 -0 -0 -1 -1 -0 -0 -0 -0 -1 -1 -1 -0 1 5 11 9 7 4 -0 0 0 0 1 -0 -1 -1 0 2 4 4 0 -1 -1 -1 -0 0 0 0 0 0 -0 -0 -0 -0 -0 -1 -1
2 1 0 1 -0 -1 0 4 2 -2 -2 -3 -1 1 3 1 1 1 1 0 0 0 0 0 0 1 0 0 0 0 1 1 1 1 2 2 1 1 1 1 1 1 1 1 1 1 1 1 1 1 1 0 -0 -0 -1 -0 -0 -1 -1 -1 -1 -0 0 1 0 0 -0 0 1 2 4 8 8 4 -1 1 1 1 1 1 0 -0 -0 1 3 5 4 -0 -1 -1 -0 -0 0 0 0 0 0 -0 -0 -0 -0 -0 -1
-0 -1 -1 -1 -0 -0 -0 6 5 2 2 7 7 5 2 2 1 1 0 1 0 -0 -0 -0 0 0 0 0 0 0 0 0 1 1 1 1 1 1 1 1 1 0 0 1 1 0 0 1 1 1 0 0 0 -0 -1 -0 -1 -1 -1 -1 -1 -1 0 1 1 1 1 1 1 1 2 6 6 4 -1 5 4 1 2 1 1 1 3 4 2 2 7 1 -1 -0 -0 -0 0 0 0 0 0 0 0 0 0 -0 -1
-0 -1 -1 -1 -1 -0 1 4 3 1 1 6 6 4 -0 1 1 1 1 1 0 -0 -0 -0 -0 -0 -0 -0 0 0 -0 0 1 1 1 1 1 1 1 0 0 -0 0 0 1 1 0 0 0 0 -1 -0 -0 -0 -0 -0 -0 -1 -1 -1 -1 -1 -0 1 1 2 2 2 2 3 6 7 4 2 1 6 4 0 1 1 2 5 10 7 3 2 7 2 -0 -1 -0 -0 0 0 0 0 0 0 0 0 0 0 -0
-1 -0 -1 -1 -1 -1 1 4 4 1 -1 -0 1 1 1 1 1 1 1 0 0 0 0 0 0 0 0 0 0 0 0 -0 0 1 1 1 1 1 1 0 -0 -0 -0 0 1 1 1 0 0 -0 -0 -1 -0 -0 -0 -0 0 1 0 -0 -0 -0 -0 0 1 2 2 2 3 5 11 8 4 0 2 5 2 -1 -0 0 1 2 4 2 1 3 6 3 0 -1 -1 -0 0 0 0 0 1 0 0 0 0 0 -0
-0 -0 -1 0 1 1 1 3 4 2 0 -1 -0 1 2 3 2 1 -0 -0 0 1 1 1 1 1 1 1 1 1 0 -0 -0 -0 -0 0 0 0 0 0 -0 -1 -0 0 1 1 1 1 1 1 0 -0 -1 -1 -0 1 2 2 2 1 1 0 -0 0 1 1 2 2 3 5 8 6 4 1 -1 2 2 2 2 1 0 -0 0 6 7 6 5 6 4 0 -0 0 0 1 1 1 1 1 1 1 1 0 0
1 0 -1 1 2 2 2 2 2 2 1 -0 -0 1 2 2 2 2 1 0 0 1 3 2 2 1 2 2 1 1 1 0 -0 -0 -1 -1 -1 -0 0 -0 -0 -1 -0 -0 -0 0 1 1 1 1 1 0 -0 -1 -0 1 3 3 3 2 1 1 1 1 1 1 2 2 3 4 4 3 2 0 -2 -0 2 4 7 2 -1 -1 1 14 16 10 2 10 7 2 1 1 1 1 1 1 1 1 1 1 1 1 0
1 0 -1 0 2 3 2 1 1 1 1 1 1 1 1 1 1 1 1 1 1 1 2 4 4 3 1 2 2 2 1 1 0 0 -0 -1 -1 -0 0 1 1 1 -0 -1 -1 -0 0 0 0 0 0 0 -0 -1 -0 1 2 3 3 2 2 1 1 1 1 2 2 2 3 3 3 3 2 1 -1 0 2 4 5 4 0 -1 3 16 13 4 0 9 7 2 2 1 1 1 1 1 1 1 1 1 1 1 1
1 0 -0 -1 0 1 2 2 2 2 1 2 2 1 1 0 0 0 1 2 2 2 2 3 2 1 -1 -0 1 3 3 2 1 1 0 -0 -1 -1 0 2 2 2 1 -0 -1 -1 -1 -1 -1 -1 -1 -1 -1 -1 -0 0 1 2 2 2 1 1 1 1 1 2 2 2 3 3 3 3 2 1 0 1 2 5 7 4 -0 -1 6 9 5 -0 3 8 6 2 1 1 1 1 1 1 1 1 1 1 1 1 1
1 1 1 0 -0 -0 0 1 1 1 1 2 2 2 0 -0 -0 0 2 2 2 2 1 2 2 1 -1 -1 0 2 3 3 2 2 1 1 0 -0 -0 1 1 2 1 1 0 0 -0 -0 -1 -1 -1 -1 -1 -1 -1 -0 1 1 1 0 0 0 0 1 1 2 2 3 3 3 3 3 2 1 1 1 2 4 10 1 -2 2 12 8 9 11 12 11 8 4 1 1 1 0 0 0 0 0 1 1 1 1 1
1 1 1 1 -0 -1 -1 -0 -0 0 -0 1 1 1 0 -0 -0 0 1 2 2 2 2 2 3 3 3 2 2 3 3 4 4 3 3 2 1 0 0 0 1 1 1 1 1 2 2 2 1 -0 -1 -1 -1 -1 -1 -1 0 1 0 -0 -0 -0 -0 0 1 1 2 3 3 4 4 3 3 2 1 2 2 4 12 -0 -4 2 17 17 16 15 10 10 8 5 1 1 1 0 -0 -0 -0 0 0 0 0 0 1
1 1 2 1 0 -1 -1 -1 -1 -0 -1 -0 0 0 -0 -0 -1 -1 -0 1 1 1 1 1 2 3 3 2 3 3 4 4 4 4 4 3 2 2 1 0 0 -0 -0 -0 1 2 3 3 2 1 -0 -1 -1 -1 -1 -1 -0 0 0 -0 -0 -0 -0 0 0 1 1 2 3 4 4 3 3 2 2 2 3 4 7 1 -0 5 15 10 4 -0 2 7 9 8 6 2 1 0 -0 -0 -0 -0 0 0 0 0 0
1 1 2 1 0 -0 -0 -0 -1 -1 -1 -0 -0 -0 -0 -0 -1 -1 -1 -0 -0 -0 -1 -0 -0 0 0 0 0 1 2 2 2 2 3 3 3 3 2 1 0 -0 -0 -1 0 1 2 3 2 1 0 0 -0 -1 -1 -1 -0 0 0 0 -0 0 0 0 0 0 0 1 2 3 4 3 3 3 2 2 3 4 6 3 7 13 16 2 -3 -1 6 11 11 9 12 4 1 0 0 -0 -0 -0 0 0 0 0 0
1 1 1 1 0 0 1 0 -0 -1 -0 -0 -0 -1 -1 -0 -1 -2 -2 -1 -1 -1 -1 -1 -1 -1 -1 -1 -1 -1 -0 -1 -1 -0 0 2 3 3 2 1 1 -0 -0 -1 -0 0 1 1 2 2 1 1 -0 -0 -0 -0 -0 0 0 0 0 1 0 0 0 -0 -0 0 1 2 3 3 3 3 2 2 3 4 4 5 8 11 11 -3 -2 5 14 8 8 10 11 7 3 0 -0 0 0 0 0 0 0 0 1
-0 1 1 1 0 0 1 0 -0 -1 -0 0 -0 -1 -1 -0 -1 -1 -2 -2 -1 -1 -1 -1 -1 -1 -1 -1 -1 -1 -1 -1 -2 -2 -2 -0 1 2 2 1 1 1 0 -0 -0 -0 0 1 1 2 2 2 1 0 0 0 0 0 0 0 1 1 1 0 -0 -1 -1 -0 0 1 2 3 3 3 3 3 3 3 2 0 3 6 5 -3 1 8 11 -0 4 10 8 10 7 2 0 0 0 0 1 1 0 0 1
-2 -1 0 1 1 0 0 -0 -1 -1 -0 0 0 -0 -1 -1 -1 -1 -1 -2 -1 -1 -1 -1 -2 -2 -1 -1 -1 -1 -0 -1 -2 -2 -2 -1 -0 1 1 1 1 1 0 0 -0 -0 -1 -0 1 2 3 3 2 1 0 0 0 0 1 1 1 1 0 -0 -1 -1 -1 -1 -0 1 1 2 3 3 3 3 3 2 0 -2 1 4 3 2 7 11 5 1 6 10 4 8 9 7 1 1 0 0 1 1 1 1 1
-4 -3 -2 -1 -0 0 0 -0 -1 -1 -0 1 1 0 -0 -1 -1 -1 -1 -1 -1 -1 -1 -1 -1 -2 -2 -2 -2 -1 -0 -1 -1 -2 -2 -1 -0 -0 0 -0 0 0 0 0 -0 -0 -1 -1 -0 1 2 3 2 2 1 0 0 1 1 1 1 0 -0 -1 -1 -1 -1 -0 -0 0 1 1 2 2 3 3 2 2 -0 -1 1 3 2 1 5 7 0 2 5 8 4 7 9 8 5 3 1 0 1 1 0 0 0
-2 -3 -3 -3 -2 -2 -1 -1 -1 -1 -0 1 1 1 0 -0 -1 -1 -1 -1 -1 -1 -1 -0 -1 -1 -2 -3 -3 -2 -1 -1 -2 -3 -3 -1 -1 -0 -0 0 -0 -0 -1 -0 0 -0 -1 -1 -1 -0 1 1 2 2 1 0 0 1 1 1 1 1 -0 -0 -0 -0 -0 -0 -0 -0 -0 1 1 2 2 3 2 2 -0 -0 1 2 2 2 1 1 4 4 4 4 7 6 6 7 9 6 3 1 0 0 -0 -0 -0
-0 -1 -1 -2 -3 -3 -3 -3 -2 -1 -0 0 1 1 0 -0 -0 -0 -0 -1 -1 -1 -1 -0 -0 -0 -1 -2 -3 -3 -2 -2 -3 -3 -4 -3 -2 -2 -0 0 0 -0 -1 -1 -0 -0 -1 -1 -1 -1 -1 -0 0 1 1 0 0 1 0 1 1 1 1 1 0 0 -0 -0 -1 -1 -1 -0 0 1 2 2 2 2 1 0 1 1 1 3 2 1 6 6 6 5 4 2 1 2 5 8 6 2 -1 -0 -0 -1 -1
0 -0 -0 -0 -1 -2 -3 -4 -4 -3 -2 -0 -0 0 0 -0 -0 -1 -1 -1 -1 -0 -1 -1 -1 -0 0 -1 -2 -2 -2 -1 -2 -3 -3 -3 -3 -3 -1 -0 -0 -1 -1 -1 -1 -1 -2 -1 -1 -1 -1 -1 -1 -1 -0 -0 1 1 1 0 1 1 2 2 2 1 1 -0 -1 -1 -1 -0 0 1 1 2 2 2 1 1 0 -0 -1 -0 0 2 6 0 1 3 3 3 1 -0 1 7 7 4 -1 -0 -0 -1 -1
-1 -1 -1 -0 -0 -1 -2 -3 -4 -4 -3 -2 -1 -1 -0 -0 -1 -2 -1 -1 -1 -0 -0 -1 -2 -1 -0 1 -0 -2 -2 -1 -2 -3 -3 -2 -3 -3 -2 -1 -1 -1 -1 -1 -2 -2 -2 -1 -1 -1 -1 -1 -2 -1 -1 -1 1 2 2 0 1 1 2 3 3 2 1 0 0 -0 -0 -0 -0 0 1 1 2 2 2 1 0 -1 -1 -1 -1 1 6 -2 -4 -1 3 6 5 4 6 7 7 5 0 0 -0 -0 -1
-3 -2 -2 -2 -1 -1 -0 -2 -3 -3 -3 -3 -2 -1 -1 -0 -1 -2 -2 -2 -1 -0 1 -0 -2 -3 -3 0 1 -0 -3 -1 -2 -3 -4 -2 -2 -3 -2 -2 -2 -2 -2 -2 -2 -2 -2 -1 -1 -1 -1 -1 -2 -2 -2 -1 1 2 2 1 1 2 2 2 2 2 1 1 1 1 1 0 0 0 0 1 1 2 2 1 0 -0 -1 -0 1 1 2 -1 -3 -2 2 3 4 6 8 7 8 8 4 2 1 1 -0
-3 -2 -2 -2 -2 -1 -0 -1 -2 -2 -2 -2 -2 -2 -1 -1 -2 -2 -3 -2 -2 -1 1 0 -2 -4 -5 -2 0 1 -1 -1 -2 -3 -4 -3 -3 -3 -3 -3 -3 -2 -2 -2 -2 -2 -1 -1 -1 -1 -1 -1 -2 -3 -3 -1 0 2 2 2 2 2 2 2 2 2 2 1 1 1 1 1 1 0 -0 0 1 1 2 1 0 -0 -0 1 1 2 1 -1 -2 -3 -1 0 1 2 3 5 8 10 10 6 3 1 1
-4 -3 -2 -2 -2 -2 -1 -2 -2 -1 -1 -1 -2 -2 -2 -3 -3 -3 -3 -3 -3 -2 -1 0 -1 -3 -5 -5 -2 -0 -0 -1 -2 -2 -3 -3 -3 -3 -3 -3 -3 -3 -2 -2 -3 -3 -2 -1 -0 -0 -0 -1 -2 -3 -3 -2 -1 0 1 2 2 2 2 2 2 2 2 1 1 1 1 1 1 1 1 1 1 1 1 0 0 -0 0 1 2 2 2 0 -1 -2 -1 0 1 0 0 4 7 9 11 8 5 3 1
-3 -3 -2 -2 -2 -2 -1 -2 -2 -2 -1 -1 -2 -2 -3 -4 -4 -4 -4 -4 -4 -4 -4 -1 -1 -2 -5 -6 -5 -3 -1 -1 -2 -2 -2 -3 -4 -4 -3 -3 -3 -3 -2 -3 -3 -3 -2 -1 -0 0 0 -1 -2 -3 -3 -2 -1 -1 0 1 1 1 2 2 2 2 2 1 1 0 0 1 1 1 1 1 1 0 -1 -1 -1 -0 0 1 2 2 3 2 1 -0 -0 1 1 1 0 2 4 7 8 7 7 6 2
-3 -2 -1 -2 -1 -1 -2 -2 -2 -2 -1 -0 -0 -1 -2 -4 -5 -5 -5 -5 -5 -5 -6 -5 -2 -1 -3 -5 -6 -5 -2 -1 -1 -1 -2 -2 -3 -3 -4 -4 -3 -2 -2 -3 -3 -3 -3 -2 -1 -0 -1 -1 -2 -2 -3 -2 -1 -1 -1 -1 -1 -0 1 2 2 2 2 1 0 -0 0 1 1 2 2 1 1 -0 -1 -1 -1 -1 -0 1 1 2 3 3 2 1 1 1 1 1 1 0 3 5 6 6 7 7 6
-3 -2 -1 -1 -0 -1 -1 -2 -2 -2 -1 -0 1 1 -0 -2 -3 -3 -3 -4 -5 -5 -7 -7 -3 -0 0 -2 -4 -5 -5 -2 -1 -1 -2 -3 -3 -4 -6 -5 -4 -2 -3 -4 -4 -3 -2 -2 -2 -2 -2 -1 -1 -2 -2 -2 -1 -1 -2 -2 -2 -1 -0 1 2 2 2 1 1 0 0 1 1 1 1 1 0 -1 -1 -1 -1 -1 -1 -0 1 1 2 3 3 2 1 1 1 1 1 1 2 3 2 4 6 7 7
-3 -3 -3 -2 -1 -1 -1 -1 -2 -2 -1 -1 0 1 0 -1 -1 -1 -2 -2 -4 -5 -6 -6 -4 -1 0 -0 -2 -3 -4 -4 -2 -1 -2 -3 -4 -4 -5 -5 -4 -3 -3 -5 -4 -3 -1 -2 -3 -3 -2 -2 -1 -1 -2 -2 -1 -1 -2 -3 -2 -2 -2 -1 1 2 2 1 1 1 0 1 1 1 1 0 0 -0 -0 -0 -1 -1 -1 -1 -1 0 1 2 2 2 2 1 1 1 1 2 1 0 -1 2 5 6 4
-2 -2 -3 -2 -2 -1 -1 -1 -1 -2 -2 -1 -0 -0 -0 -0 0 0 -1 -1 -3 -5 -6 -4 -4 -4 -3 -1 -1 -1 -1 -2 -1 -1 -2 -4 -4 -3 -2 -3 -4 -5 -3 -3 -3 -3 -1 -2 -3 -4 -3 -3 -2 -2 -1 -1 -1 -2 -3 -2 -2 -2 -2 -1 -0 1 1 1 1 1 1 1 1 1 1 1 1 1 1 0 -0 -1 -1 -2 -1 -1 0 1 2 2 2 1 1 2 2 3 2 1 -0 2 4 5 1
-1 -1 -1 -1 -1 -1 -0 -1 -1 -1 -1 -1 -1 -1 -1 -0 0 0 0 -1 -3 -5 -5 -3 -3 -4 -5 -3 -1 -0 0 -1 1 2 1 -4 -7 -6 -3 -1 -3 -5 -5 -2 -1 -2 -3 -3 -4 -4 -4 -3 -2 -2 -1 -1 -1 -2 -2 -1 -2 -2 -2 -2 -1 -0 1 1 1 1 1 1 1 1 1 1 1 1 1 1 1 0 -1 -1 -1 -1 -1 0 1 1 1 1 1 2 3 4 4 3 1 4 5 3 -1
-2 -2 -1 -1 -0 0 0 -0 0 0 0 -0 -1 -1 -1 0 1 1 2 0 -2 -3 -4 -3 -2 -3 -4 -5 -3 -1 1 -1 1 3 5 0 -3 -6 -8 -3 -2 -3 -5 -3 -1 -2 -4 -4 -4 -4 -3 -3 -2 -2 -2 -1 -1 -2 -1 -1 -1 -2 -2 -1 -1 -1 -0 0 0 1 1 1 1 1 1 1 1 1 1 1 1 1 0 -0 -1 -1 -1 -1 -0 1 1 1 1 2 3 4 4 3 1 4 4 3 2
-3 -3 -2 -1 -1 0 1 1 0 0 1 1 0 0 1 2 2 2 3 2 -0 -1 -1 -2 -3 -2 -1 -4 -5 -3 2 1 2 4 2 -2 -1 -1 -6 -8 -6 -5 -7 -3 -2 -2 -2 -4 -5 -4 -2 -2 -2 -2 -2 -1 -1 -2 -2 -1 -1 -1 -1 -1 -1 -1 -1 -1 -1 -0 1 0 0 1 1 1 1 1 0 1 1 1 1 1 -0 -1 -2 -2 -1 0 1 1 2 2 3 3 3 3 2 3 2 2 5
-3 -3 -3 -3 -2 -1 1 1 -0 -0 1 0 1 2 3 4 4 3 3 2 0 -1 -1 -2 -3 -3 -1 -1 -4 -4 1 2 3 3 2 -5 -4 -0 2 -3 -9 -12 -9 -2 -3 -4 2 -4 -5 -3 -1 -2 -2 -1 -1 -1 -2 -2 -2 -1 -1 -1 -0 -0 -0 -1 -1 -2 -1 -0 1 0 0 1 1 1 1 1 1 1 1 1 1 1 1 -0 -1 -2 -1 -0 1 1 2 2 3 4 4 3 3 3 4 4 4
-3 -3 -3 -3 -2 -1 -0 -1 -0 0 -0 -1 -0 2 4 4 4 3 2 1 0 -1 -1 -1 -2 -3 -2 0 -0 -2 -2 2 2 2 2 -2 -3 0 7 5 -7 -16 -8 -2 -6 -10 -1 -1 -2 -3 -0 1 -0 -2 -1 -1 -2 -3 -1 -2 -1 -1 -0 -0 -0 -0 -2 -2 -1 -0 1 0 1 1 1 1 1 1 1 1 0 1 1 1 1 0 -1 -2 -1 -1 0 1 1 1 2 3 3 3 2 1 2 3 4
-3 -3 -3 -3 -2 -2 -2 -1 -0 1 -1 -2 -1 0 1 2 3 3 2 1 0 0 -0 -1 -1 -1 -3 -1 0 0 -2 1 2 2 2 2 2 3 4 6 1 -8 -15 -1 -3 -13 -18 -0 2 -2 -2 5 3 -1 -2 -2 -2 -3 -1 -2 -2 -2 -1 -0 -0 -1 -2 -2 -1 -0 -0 -0 0 1 1 0 0 1 1 1 0 0 1 1 1 -0 -1 -1 -1 -1 -1 -1 -0 -0 1 2 2 2 2 1 0 1 4
-3 -2 -3 -3 -3 -3 -3 -1 -1 -0 -1 -1 -1 -1 -1 0 1 2 1 1 1 1 -0 0 1 0 -2 -3 -2 -1 -0 1 3 4 3 3 4 3 -0 3 5 0 -15 -3 -2 -8 -22 -7 -0 -0 -3 5 5 1 -4 -2 -1 -2 -2 -2 -2 -2 -2 -1 -1 -1 -2 -1 0 0 -0 -0 -0 -0 -0 -0 0 0 1 1 1 1 1 0 -0 -1 -1 -1 -1 -1 -2 -2 -2 -1 -1 0 1 2 2 1 1 0 2
-2 -2 -2 -3 -3 -3 -3 -2 -2 -1 -0 -1 -1 -2 -1 -0 0 0 0 1 1 1 -0 0 1 1 0 -2 -4 -4 -0 2 4 6 4 3 3 2 0 3 7 7 -1 -8 -8 -8 -12 -7 -1 -0 -9 4 7 4 -5 -1 -0 -2 -3 -2 -2 -2 -1 -1 -1 -1 -1 -0 0 0 -0 -0 -0 -1 -1 -0 -0 -0 0 1 1 1 1 0 -1 -1 -1 -0 -0 -1 -2 -2 -2 -2 -2 -0 1 2 2 2 1 1 2
-1 -1 -1 -1 -2 -3 -3 -3 -3 -2 -1 -2 -2 -1 -1 -1 -1 -1 -0 1 1 1 0 -0 -0 -0 1 -1 -4 -5 -2 1 4 6 5 2 2 3 4 1 4 8 7 -7 -9 -8 -11 -0 5 -0 -17 -3 4 4 -1 -1 -1 -1 -2 -2 -2 -1 -1 -1 -1 -1 -1 -1 -0 0 0 0 -0 -1 -1 -1 -1 -1 -0 0 1 1 1 0 -0 -1 -0 0 -0 -1 -2 -2 -2 -2 -1 0 2 2 3 3 2 2 2
0 0 1 0 -1 -2 -2 -3 -3 -3 -2 -2 -2 -1 -1 -1 -2 -1 0 0 0 0 1 -1 -2 -1 1 1 -1 -3 -4 -2 1 4 5 3 2 3 5 1 0 1 2 -4 -2 -1 -7 0 2 -1 -10 -11 -5 2 6 -1 -2 -1 -0 -1 -0 -0 -1 -1 -1 -1 -1 -1 -0 0 0 0 -0 -0 -1 -1 -1 -1 -1 -0 0 1 0 -0 -1 -1 0 0 -0 -1 -2 -3 -2 -2 -0 1 2 2 2 2 2 2 2
1 1 2 2 1 0 -0 -1 -2 -3 -3 -2 -2 -2 -2 -2 -1 -1 -0 -1 -0 1 0 -2 -2 -1 -0 0 0 -1 -4 -3 -1 1 2 3 3 4 5 3 2 2 -0 0 1 1 1 -2 -3 -2 1 -10 -9 -3 3 -0 -0 0 -1 0 1 1 -0 -1 -1 -1 -1 -1 -0 -0 -0 0 1 0 -1 -1 -1 -1 -1 -1 -0 -0 -0 -1 -1 -1 1 1 0 -1 -2 -2 -3 -2 -1 -0 0 0 0 0 1 1 1
1 1 2 2 2 1 1 1 0 -0 -1 -1 -2 -3 -3 -2 -1 -1 -2 -2 -0 1 -1 -1 -1 -0 -1 -1 -0 -0 -3 -3 -2 -0 2 1 1 3 6 2 0 -0 0 -0 -1 -1 3 -0 0 1 -0 -5 -5 -5 -12 -4 1 1 -2 -0 1 1 1 -1 -1 -1 -2 -1 -1 -0 -1 0 0 0 -0 -0 -1 -1 -1 -1 -1 -1 -1 -1 -1 -1 0 1 1 -0 -1 -2 -2 -1 -0 -0 -0 -0 -1 -1 -1 -1 -0
1 1 1 1 2 1 1 1 1 1 1 0 -1 -1 -1 -2 -2 -3 -3 -2 -0 0 -1 -1 -1 -1 -2 -0 0 -0 -2 -2 -2 -0 3 -1 -2 -1 4 3 1 1 0 -2 -1 0 2 1 2 2 -1 2 0 -5 -13 -7 -3 -1 -1 1 2 2 1 -1 -1 -1 -1 -1 -1 -1 -1 -0 -0 0 1 0 -0 -0 -0 -1 -1 -1 -1 -1 -2 -1 -0 1 0 -0 -1 -2 -1 1 4 3 3 2 1 -1 -2 -2 -1
Height
3164 3163 3164 3164 3164 3163 3163 3163 3163 3163 3163 3163 3163 3163 3163 3164 3164 3164 3164 3165 3164 3164 3164 3164 3164 3165 3166 3166 3166 3165 3165 3165 3166 3166 3166 3166 3166 3166 3166 3166 3166 3167 3167 3168 3168 3168 3168 3168 3169 3169 3169 3169 3169 3170 3170 3171 3171 3172 3172 3172 3173 3173 3173 3174 3174 3174 3175 3175 3175 3175 3175 3175 3176 3176 3176 3177 3177 3178 3178 3178 3178 3179 3179 3180 3180 3181 3181 3182 3183 3183 3183 3184 3184 3185 3186 3186 3187 3187 3188 3188 3188 3189 3189
3162 3162 3162 3162 3162 3162 3162 3162 3162 3162 3162 3162 3162 3162 3162 3163 3163 3163 3163 3163 3163 3163 3163 3163 3163 3164 3165 3165 3164 3164 3164 3164 3164 3164 3164 3165 3165 3165 3165 3164 3165 3166 3166 3167 3167 3167 3168 3168 3168 3168 3168 3168 3168 3169 3169 3170 3170 3171 3171 3171 3172 3172 3173 3173 3173 3173 3174 3174 3174 3174 3174 3174 3175 3175 3176 3176 3176 3177 3177 3178 3178 3178 3178 3179 3180 3180 3181 3181 3182 3182 3183 3183 3184 3184 3185 3185 3186 3186 3187 3187 3188 3188 3189
3161 3161 3161 3161 3161 3161 3160 3160 3160 3160 3160 3160 3161 3161 3161 3161 3161 3162 3162 3162 3162 3163 3162 3162 3163 3163 3163 3163 3163 3163 3162 3163 3163 3163 3163 3163 3164 3164 3164 3164 3164 3165 3166 3166 3167 3167 3166 3167 3167 3167 3167 3167 3168 3168 3168 3168 3169 3170 3170 3171 3171 3171 3172 3172 3172 3173 3173 3174 3174 3173 3173 3174 3174 3174 3175 3175 3175 3176 3176 3177 3177 3178 3178 3178 3179 3179 3180 3180 3181 3181 3182 3182 3183 3183 3184 3184 3185 3186 3186 3187 3187 3188 3188
3160 3160 3160 3159 3159 3159 3159 3159 3159 3159 3159 3159 3159 3159 3159 3160 3160 3160 3160 3160 3161 3161 3161 3160 3161 3162 3161 3161 3161 3161 3162 3162 3162 3162 3162 3162 3163 3163 3163 3163 3164 3164 3165 3166 3166 3165 3165 3165 3166 3166 3166 3166 3166 3167 3167 3168 3168 3168 3169 3170 3170 3170 3171 3171 3172 3172 3172 3172 3173 3173 3173 3173 3174 3175 3174 3174 3175 3175 3175 3176 3176 3177 3177 3178 3178 3178 3179 3179 3180 3180 3181 3182 3182 3183 3183 3183 3184 3185 3185 3186 3186 3187 3187
3158 3158 3158 3158 3158 3158 3158 3158 3157 3157 3157 3157 3158 3158 3158 3158 3158 3158 3158 3159 3159 3159 3159 3159 3159 3159 3159 3159 3160 3161 3161 3161 3160 3160 3161 3161 3161 3162 3162 3162 3163 3163 3163 3163 3164 3164 3164 3164 3164 3164 3165 3165 3165 3165 3166 3166 3167 3167 3168 3168 3169 3169 3170 3170 3170 3171 3171 3171 3171 3172 3172 3172 3173 3173 3174 3174 3174 3174 3175 3175 3176 3176 3176 3177 3177 3178 3178 3178 3179 3179 3180 3181 3181 3182 3182 3183 3183 3184 3184 3185 3185 3186 3187
3157 3157 3157 3157 3157 3156 3156 3156 3156 3156 3156 3156 3156 3156 3157 3157 3157 3157 3157 3157 3158 3158 3158 3158 3158 3158 3158 3158 3159 3160 3159 3159 3159 3159 3159 3160 3161 3161 3161 3161 3161 3161 3161 3162 3162 3162 3162 3163 3163 3163 3163 3164 3164 3164 3164 3165 3165 3166 3167 3167 3168 3168 3168 3169 3169 3170 3170 3170 3171 3171 3172 3172 3172 3172 3173 3173 3173 3173 3174 3174 3175 3175 3176 3176 3176 3177 3177 3178 3178 3178 3179 3180 3180 3181 3181 3182 3182 3183 3183 3184 3185 3185 3186
3156 3156 3156 3156 3155 3155 3155 3154 3154 3154 3155 3155 3155 3155 3155 3155 3155 3155 3155 3156 3156 3156 3156 3157 3157 3157 3158 3157 3157 3157 3157 3158 3158 3158 3158 3159 3160 3160 3160 3160 3160 3160 3160 3160 3160 3160 3160 3161 3162 3162 3162 3163 3163 3163 3163 3164 3164 3165 3165 3166 3166 3167 3167 3168 3168 3168 3169 3169 3170 3170 3171 3171 3171 3171 3172 3171 3172 3173 3173 3173 3173 3174 3174 3175 3175 3176 3176 3177 3177 3178 3178 3179 3179 3180 3180 3181 3181 3182 3183 3183 3184 3184 3185
3155 3155 3155 3155 3154 3153 3153 3153 3153 3153 3153 3153 3153 3153 3153 3153 3153 3154 3154 3154 3154 3154 3155 3155 3155 3155 3156 3156 3156 3155 3156 3156 3156 3157 3157 3158 3158 3158 3158 3158 3159 3158 3158 3158 3158 3159 3159 3159 3159 3160 3161 3161 3162 3162 3162 3162 3163 3163 3164 3164 3165 3165 3166 3166 3167 3167 3168 3168 3168 3169 3169 3169 3170 3170 3170 3170 3171 3171 3172 3172 3173 3173 3173 3174 3175 3175 3175 3176 3177 3177 3177 3178 3178 3179 3179 3180 3180 3181 3182 3182 3183 3183 3184
3153 3153 3153 3153 3153 3152 3151 3151 3151 3151 3151 3151 3151 3151 3151 3152 3152 3152 3152 3152 3152 3153 3153 3153 3153 3153 3153 3154 3154 3154 3154 3155 3155 3155 3156 3156 3156 3157 3157 3157 3157 3156 3156 3157 3157 3158 3158 3158 3158 3159 3159 3159 3160 3160 3161 3161 3161 3162 3163 3163 3164 3164 3165 3165 3166 3166 3166 3167 3167 3168 3168 3168 3168 3169 3169 3169 3170 3170 3170 3171 3172 3172 3173 3173 3174 3174 3174 3175 3176 3176 3177 3177 3178 3178 3178 3179 3179 3180 3180 3181 3182 3182 3183
3152 3152 3152 3151 3150 3150 3150 3150 3149 3149 3150 3150 3150 3150 3150 3150 3150 3150 3150 3150 3151 3151 3151 3151 3151 3152 3152 3152 3153 3153 3153 3153 3154 3154 3154 3154 3154 3154 3155 3155 3155 3154 3155 3155 3156 3156 3156 3157 3157 3158 3158 3158 3158 3159 3159 3160 3160 3160 3161 3162 3162 3163 3163 3164 3164 3165 3165 3165 3166 3166 3167 3167 3168 3168 3168 3168 3169 3169 3170 3170 3171 3171 3172 3172 3173 3173 3174 3174 3175 3175 3176 3176 3177 3177 3178 3178 3178 3179 3179 3180 3181 3181 3182
3150 3150 3150 3150 3149 3148 3148 3148 3148 3148 3148 3148 3148 3148 3148 3148 3148 3149 3148 3149 3149 3149 3149 3149 3150 3150 3150 3151 3151 3151 3151 3151 3152 3152 3153 3153 3153 3153 3153 3153 3153 3153 3153 3154 3154 3155 3155 3155 3156 3156 3156 3157 3157 3157 3158 3158 3158 3159 3160 3160 3161 3161 3162 3163 3163 3163 3164 3164 3165 3165 3165 3166 3166 3167 3167 3168 3168 3168 3168 3169 3170 3170 3171 3171 3172 3173 3173 3173 3174 3174 3175 3175 3176 3176 3177 3177 3178 3178 3178 3179 3180 3180 3181
3149 3148 3148 3148 3148 3147 3147 3147 3146 3146 3146 3146 3146 3147 3147 3147 3147 3147 3147 3147 3147 3148 3148 3148 3148 3148 3148 3149 3149 3150 3150 3150 3150 3150 3150 3151 3151 3151 3151 3151 3151 3152 3152 3152 3153 3153 3153 3154 3154 3155 3155 3155 3155 3156 3156 3156 3157 3158 3158 3158 3159 3160 3160 3161 3162 3162 3163 3163 3163 3164 3164 3164 3165 3166 3166 3166 3167 3167 3168 3168 3169 3169 3170 3170 3171 3171 3172 3173 3173 3173 3174 3174 3175 3175 3176 3176 3177 3177 3178 3178 3179 3179 3180
3147 3147 3147 3146 3146 3145 3145 3145 3145 3144 3144 3144 3145 3145 3145 3145 3145 3145 3145 3145 3145 3146 3146 3146 3146 3146 3147 3147 3147 3148 3148 3148 3148 3148 3149 3149 3149 3149 3150 3150 3150 3150 3150 3151 3151 3152 3152 3153 3153 3153 3154 3154 3154 3154 3154 3155 3155 3156 3157 3157 3158 3158 3159 3159 3160 3161 3162 3162 3162 3163 3163 3163 3164 3164 3165 3165 3166 3166 3167 3167 3167 3168 3168 3169 3170 3170 3171 3172 3172 3173 3173 3173 3174 3174 3175 3175 3176 3176 3177 3177 3178 3178 3179
3146 3145 3145 3144 3144 3143 3143 3143 3143 3143 3143 3143 3143 3143 3143 3143 3143 3143 3143 3143 3143 3143 3144 3144 3144 3144 3145 3145 3145 3146 3146 3146 3147 3147 3147 3147 3148 3148 3148 3148 3148 3148 3148 3149 3149 3150 3150 3151 3151 3152 3152 3152 3152 3152 3153 3153 3154 3154 3155 3155 3156 3157 3157 3158 3159 3159 3160 3161 3161 3162 3162 3162 3163 3163 3163 3164 3164 3165 3165 3166 3166 3167 3167 3168 3169 3169 3170 3170 3171 3172 3172 3172 3173 3173 3174 3174 3175 3175 3176 3176 3177 3177 3178
3144 3143 3143 3143 3142 3142 3141 3141 3141 3141 3141 3141 3141 3141 3141 3141 3140 3141 3141 3141 3141 3141 3142 3142 3142 3143 3143 3143 3143 3144 3144 3144 3145 3145 3145 3146 3146 3146 3146 3146 3147 3147 3147 3147 3148 3148 3148 3149 3150 3150 3150 3150 3151 3151 3151 3152 3153 3153 3153 3154 3154 3155 3156 3156 3157 3158 3158 3159 3160 3160 3161 3161 3161 3162 3162 3163 3163 3164 3164 3165 3165 3165 3166 3167 3168 3168 3169 3169 3170 3171 3171 3171 3172 3172 3173 3173 3174 3174 3175 3175 3176 3176 3177
3142 3142 3142 3141 3140 3140 3140 3140 3140 3139 3139 3139 3139 3139 3139 3138 3138 3138 3138 3139 3139 3139 3139 3140 3140 3141 3141 3141 3142 3142 3142 3143 3143 3143 3144 3144 3144 3144 3144 3145 3145 3145 3145 3145 3146 3147 3147 3147 3148 3148 3148 3149 3149 3149 3149 3150 3151 3152 3152 3153 3153 3153 3154 3155 3155 3156 3157 3158 3158 3159 3159 3160 3160 3161 3161 3162 3162 3163 3163 3164 3165 3165 3165 3165 3166 3167 3168 3168 3169 3169 3170 3170 3171 3171 3172 3172 3173 3173 3173 3174 3174 3175 3176
3141 3140 3139 3138 3138 3138 3138 3138 3138 3138 3137 3137 3137 3137 3137 3137 3137 3137 3137 3137 3137 3137 3137 3138 3138 3138 3139 3139 3139 3140 3140 3141 3141 3141 3142 3142 3142 3143 3143 3143 3143 3143 3143 3144 3144 3145 3145 3145 3146 3146 3147 3147 3148 3148 3148 3149 3150 3151 3151 3151 3152 3152 3153 3153 3154 3154 3155 3156 3157 3158 3159 3159 3160 3160 3160 3161 3161 3162 3163 3164 3164 3164 3165 3165 3165 3166 3167 3167 3168 3168 3169 3169 3170 3170 3171 3171 3172 3172 3173 3173 3173 3174 3174
3140 3138 3137 3137 3137 3137 3137 3137 3136 3136 3135 3135 3135 3135 3135 3135 3134 3134 3134 3135 3135 3135 3135 3136 3136 3136 3137 3137 3138 3138 3138 3138 3139 3139 3139 3140 3140 3141 3141 3141 3142 3142 3142 3142 3143 3143 3143 3144 3144 3144 3145 3145 3146 3146 3147 3148 3148 3149 3150 3150 3150 3151 3151 3152 3152 3153 3153 3154 3156 3157 3158 3159 3159 3159 3159 3160 3160 3161 3162 3163 3163 3163 3164 3165 3165 3165 3166 3166 3167 3167 3168 3168 3168 3169 3169 3170 3170 3171 3171 3172 3172 3173 3173
3138 3136 3135 3135 3135 3135 3135 3135 3134 3134 3133 3133 3133 3133 3133 3133 3133 3133 3133 3133 3133 3133 3133 3133 3134 3134 3135 3135 3135 3136 3136 3137 3137 3137 3138 3138 3138 3138 3139 3139 3140 3140 3140 3141 3141 3141 3142 3142 3142 3143 3143 3144 3144 3144 3145 3146 3147 3148 3148 3148 3149 3149 3150 3150 3151 3151 3152 3153 3154 3155 3157 3158 3158 3158 3158 3158 3159 3160 3160 3160 3161 3162 3163 3164 3165 3165 3164 3165 3165 3166 3166 3167 3167 3168 3168 3169 3169 3170 3170 3171 3171 3172 3172
3135 3135 3134 3134 3134 3133 3133 3133 3132 3132 3131 3131 3131 3131 3131 3131 3131 3131 3131 3131 3131 3131 3131 3132 3132 3132 3133 3133 3133 3134 3134 3134 3135 3135 3136 3136 3136 3137 3137 3137 3138 3138 3138 3139 3139 3140 3140 3140 3141 3141 3142 3142 3142 3143 3143 3144 3145 3146 3146 3147 3148 3148 3148 3149 3149 3150 3150 3151 3152 3153 3154 3156 3156 3156 3156 3157 3158 3158 3158 3159 3159 3160 3161 3162 3163 3163 3163 3163 3164 3164 3165 3165 3166 3166 3167 3167 3168 3168 3169 3169 3170 3170 3171
3133 3133 3133 3133 3133 3132 3132 3131 3130 3129 3129 3129 3129 3129 3129 3129 3129 3129 3129 3129 3129 3129 3129 3130 3130 3130 3131 3131 3132 3132 3133 3133 3133 3133 3134 3134 3134 3134 3135 3135 3136 3136 3137 3137 3138 3138 3138 3138 3139 3139 3140 3140 3141 3141 3142 3142 3143 3144 3144 3145 3146 3146 3147 3148 3148 3148 3149 3149 3150 3151 3152 3153 3154 3154 3154 3155 3156 3157 3157 3158 3158 3158 3159 3159 3160 3161 3161 3162 3163 3163 3164 3164 3165 3165 3166 3166 3167 3167 3168 3168 3169 3169 3169
3132 3132 3132 3131 3131 3131 3131 3130 3129 3128 3128 3128 3128 3128 3127 3128 3128 3128 3127 3127 3127 3128 3128 3128 3128 3129 3129 3129 3130 3130 3130 3131 3131 3131 3132 3132 3132 3133 3133 3133 3134 3134 3134 3135 3135 3136 3136 3137 3137 3137 3138 3138 3139 3139 3140 3140 3141 3142 3143 3143 3144 3145 3145 3146 3147 3147 3148 3148 3148 3149 3150 3151 3153 3153 3153 3154 3155 3155 3156 3156 3157 3157 3157 3158 3159 3160 3160 3161 3161 3162 3162 3163 3163 3164 3164 3165 3165 3166 3166 3167 3168 3168 3168
3131 3130 3130 3130 3130 3130 3130 3129 3128 3128 3128 3127 3127 3127 3126 3126 3126 3126 3126 3126 3126 3126 3126 3127 3127 3127 3127 3128 3128 3128 3128 3129 3129 3129 3130 3130 3130 3131 3131 3132 3132 3132 3133 3133 3133 3134 3134 3135 3135 3135 3136 3136 3137 3138 3138 3138 3139 3140 3141 3141 3142 3143 3143 3144 3145 3146 3146 3147 3147 3148 3150 3150 3151 3151 3151 3153 3154 3154 3154 3155 3155 3156 3156 3156 3157 3158 3159 3159 3160 3160 3161 3161 3162 3163 3163 3163 3164 3164 3165 3166 3166 3167 3167
3129 3129 3128 3128 3128 3128 3128 3128 3127 3127 3127 3126 3126 3126 3125 3125 3125 3124 3124 3124 3124 3124 3124 3125 3125 3125 3126 3126 3126 3126 3127 3127 3127 3127 3128 3128 3128 3129 3129 3129 3130 3130 3131 3131 3132 3132 3132 3133 3133 3134 3134 3134 3135 3135 3136 3137 3137 3138 3139 3140 3140 3141 3142 3143 3143 3144 3144 3145 3146 3147 3149 3149 3149 3149 3149 3150 3151 3153 3153 3153 3153 3154 3154 3155 3156 3156 3157 3158 3158 3159 3159 3160 3161 3161 3162 3162 3163 3163 3164 3164 3165 3166 3166
3128 3127 3127 3126 3126 3126 3126 3126 3125 3125 3124 3124 3124 3124 3124 3123 3123 3123 3123 3123 3123 3123 3123 3123 3123 3123 3124 3124 3124 3125 3125 3125 3125 3125 3125 3125 3126 3126 3127 3127 3128 3128 3128 3129 3129 3130 3130 3131 3131 3132 3132 3133 3133 3133 3134 3135 3136 3136 3137 3138 3139 3139 3140 3141 3141 3142 3143 3143 3144 3145 3146 3146 3147 3148 3148 3148 3150 3151 3152 3152 3152 3153 3153 3154 3154 3154 3155 3156 3157 3157 3158 3158 3159 3160 3160 3161 3161 3162 3163 3163 3164 3164 3165
3125 3125 3125 3124 3124 3124 3124 3123 3123 3123 3122 3122 3122 3122 3122 3122 3122 3121 3121 3121 3121 3121 3121 3121 3122 3122 3122 3123 3123 3123 3123 3123 3123 3123 3123 3123 3123 3124 3124 3124 3125 3126 3126 3127 3127 3128 3128 3129 3129 3130 3130 3131 3131 3132 3132 3133 3134 3135 3135 3136 3137 3138 3138 3139 3140 3140 3141 3142 3142 3143 3144 3144 3145 3146 3146 3147 3148 3149 3150 3150 3150 3151 3152 3153 3153 3153 3153 3155 3156 3156 3156 3157 3158 3158 3159 3159 3160 3161 3161 3162 3163 3163 3163
3123 3123 3123 3122 3122 3122 3122 3121 3121 3121 3120 3120 3120 3120 3120 3120 3120 3119 3119 3119 3119 3120 3120 3120 3120 3120 3120 3121 3121 3121 3121 3121 3121 3121 3121 3121 3121 3121 3122 3122 3123 3123 3124 3124 3125 3125 3126 3127 3127 3128 3128 3129 3129 3129 3130 3131 3132 3133 3133 3134 3135 3136 3137 3137 3138 3138 3139 3140 3141 3141 3142 3143 3143 3144 3144 3145 3147 3148 3147 3148 3148 3149 3151 3151 3151 3152 3153 3154 3155 3155 3155 3156 3156 3157 3158 3158 3158 3159 3160 3161 3161 3162 3163
3121 3120 3120 3120 3119 3119 3119 3119 3119 3118 3118 3118 3118 3118 3118 3118 3118 3118 3118 3118 3118 3118 3118 3118 3118 3118 3118 3119 3119 3119 3119 3119 3119 3119 3119 3119 3119 3119 3119 3120 3120 3121 3121 3122 3122 3123 3123 3124 3125 3125 3126 3126 3127 3128 3128 3129 3130 3130 3131 3132 3133 3133 3134 3135 3136 3137 3138 3138 3139 3139 3140 3141 3142 3143 3143 3143 3144 3144 3145 3144 3147 3149 3149 3149 3150 3151 3152 3153 3153 3153 3154 3154 3155 3155 3156 3157 3157 3158 3158 3159 3160 3161 3161
3118 3118 3118 3118 3117 3117 3117 3116 3116 3116 3116 3116 3116 3116 3116 3115 3116 3116 3116 3116 3116 3116 3116 3116 3116 3116 3117 3117 3117 3118 3118 3118 3118 3118 3118 3118 3118 3118 3118 3118 3118 3118 3119 3119 3120 3120 3121 3122 3122 3123 3123 3124 3125 3125 3126 3127 3128 3128 3129 3129 3130 3131 3132 3133 3134 3135 3136 3136 3137 3138 3138 3139 3140 3141 3141 3142 3142 3143 3144 3144 3145 3147 3148 3149 3150 3150 3150 3151 3152 3152 3152 3153 3153 3154 3154 3155 3156 3156 3157 3158 3158 3159 3160
3116 3116 3116 3115 3114 3114 3114 3114 3113 3113 3113 3113 3113 3113 3113 3113 3113 3113 3113 3113 3114 3114 3114 3114 3114 3114 3114 3115 3115 3115 3115 3115 3115 3116 3116 3116 3116 3116 3116 3116 3116 3116 3116 3117 3117 3118 3118 3119 3120 3120 3121 3122 3122 3123 3123 3124 3125 3126 3127 3127 3128 3129 3130 3131 3132 3133 3133 3134 3135 3136 3137 3138 3138 3139 3140 3140 3141 3142 3144 3143 3143 3144 3146 3147 3147 3148 3149 3149 3150 3150 3150 3151 3152 3152 3153 3153 3154 3155 3155 3156 3157 3158 3158
3114 3113 3113 3113 3112 3112 3112 3111 3111 3111 3111 3111 3111 3111 3111 3111 3111 3111 3111 3111 3111 3111 3111 3112 3112 3112 3112 3112 3112 3112 3113 3113 3113 3113 3114 3114 3114 3114 3114 3114 3114 3114 3114 3114 3115 3115 3116 3117 3117 3118 3118 3119 3120 3120 3121 3122 3123 3124 3124 3125 3126 3127 3128 3129 3130 3131 3132 3132 3133 3134 3135 3136 3137 3137 3138 3138 3139 3140 3141 3142 3143 3144 3144 3144 3145 3146 3147 3148 3148 3149 3148 3149 3150 3151 3151 3152 3153 3153 3154 3155 3156 3156 3157
3111 3111 3111 3110 3110 3109 3109 3109 3109 3108 3108 3108 3108 3108 3108 3108 3108 3108 3108 3109 3109 3109 3108 3109 3109 3109 3109 3109 3109 3109 3109 3110 3110 3111 3111 3112 3112 3112 3112 3112 3112 3112 3112 3112 3113 3113 3114 3114 3114 3115 3116 3116 3117 3118 3119 3120 3121 3121 3122 3123 3123 3124 3125 3126 3127 3128 3129 3130 3131 3132 3133 3134 3135 3135 3136 3137 3137 3138 3139 3140 3142 3142 3142 3143 3144 3145 3145 3146 3147 3147 3147 3148 3148 3149 3150 3150 3151 3152 3153 3153 3154 3155 3156
3108 3108 3108 3108 3108 3107 3107 3107 3106 3106 3106 3106 3106 3106 3106 3106 3106 3106 3106 3106 3106 3106 3106 3106 3106 3106 3106 3106 3107 3107 3107 3107 3107 3108 3108 3109 3109 3110 3110 3110 3110 3110 3110 3110 3110 3111 3111 3112 3112 3113 3113 3114 3114 3115 3116 3117 3118 3119 3120 3120 3121 3122 3123 3124 3125 3126 3127 3128 3129 3130 3131 3132 3133 3133 3134 3135 3135 3136 3137 3137 3138 3138 3140 3142 3142 3143 3144 3144 3145 3146 3146 3147 3147 3147 3148 3149 3149 3150 3151 3152 3153 3153 3154
3106 3105 3105 3105 3105 3104 3104 3104 3104 3103 3103 3103 3103 3103 3103 3103 3103 3103 3103 3103 3104 3104 3104 3104 3104 3104 3104 3104 3104 3104 3105 3105 3105 3105 3106 3106 3107 3107 3108 3108 3108 3108 3108 3108 3108 3109 3109 3109 3110 3110 3111 3111 3112 3113 3113 3114 3115 3116 3117 3118 3119 3120 3121 3121 3123 3123 3125 3126 3127 3128 3129 3130 3131 3132 3133 3133 3133 3134 3135 3135 3136 3137 3140 3141 3141 3141 3142 3143 3143 3144 3145 3145 3145 3145 3146 3147 3148 3148 3149 3150 3151 3152 3153
3103 3103 3103 3102 3102 3102 3102 3101 3101 3101 3101 3101 3101 3101 3101 3101 3101 3101 3101 3101 3101 3101 3101 3101 3101 3101 3101 3102 3102 3102 3103 3103 3103 3103 3103 3104 3104 3105 3105 3105 3106 3106 3106 3106 3106 3107 3107 3107 3107 3108 3108 3109 3109 3110 3110 3111 3112 3113 3114 3115 3116 3117 3118 3119 3120 3121 3122 3123 3124 3126 3127 3128 3129 3130 3130 3131 3132 3132 3133 3134 3135 3136 3138 3139 3139 3139 3140 3141 3142 3143 3143 3144 3144 3144 3144 3145 3146 3147 3148 3148 3149 3150 3151
3100 3100 3100 3100 3099 3099 3099 3098 3098 3098 3098 3098 3098 3098 3098 3098 3098 3098 3098 3098 3098 3099 3099 3099 3098 3098 3099 3099 3099 3100 3100 3100 3100 3100 3101 3101 3102 3102 3103 3103 3103 3103 3104 3104 3104 3104 3104 3105 3105 3105 3106 3106 3107 3107 3108 3108 3109 3110 3112 3113 3113 3114 3115 3116 3117 3118 3120 3121 3122 3123 3124 3125 3127 3128 3128 3129 3130 3130 3131 3132 3133 3134 3135 3136 3137 3137 3138 3139 3140 3141 3142 3143 3143 3143 3143 3144 3144 3145 3146 3147 3148 3148 3149
3098 3098 3098 3097 3097 3097 3096 3096 3096 3096 3096 3096 3096 3096 3095 3095 3095 3095 3095 3096 3096 3096 3096 3096 3096 3096 3096 3096 3097 3097 3097 3098 3098 3098 3098 3099 3099 3099 3100 3100 3101 3101 3101 3102 3102 3102 3102 3103 3103 3103 3103 3103 3104 3104 3105 3106 3106 3108 3108 3110 3111 3112 3113 3114 3115 3116 3117 3118 3119 3121 3122 3123 3124 3125 3126 3127 3128 3128 3129 3130 3131 3132 3133 3133 3134 3135 3136 3137 3138 3139 3140 3140 3141 3142 3143 3143 3143 3143 3144 3145 3146 3147 3148
3095 3095 3095 3094 3094 3094 3093 3093 3093 3093 3093 3093 3093 3093 3093 3093 3093 3093 3093 3093 3093 3093 3093 3093 3093 3093 3094 3094 3094 3094 3094 3094 3095 3095 3095 3096 3096 3097 3097 3098 3098 3098 3099 3099 3099 3099 3100 3100 3101 3101 3101 3101 3101 3102 3102 3103 3103 3104 3106 3107 3108 3109 3110 3111 3112 3113 3114 3115 3117 3118 3119 3120 3122 3123 3124 3125 3126 3126 3127 3128 3128 3129 3130 3131 3132 3133 3134 3135 3136 3136 3138 3138 3139 3140 3140 3141 3142 3142 3143 3143 3144 3145 3146
3091 3091 3091 3091 3091 3091 3091 3090 3090 3090 3090 3090 3090 3090 3090 3090 3090 3090 3090 3090 3090 3090 3090 3090 3091 3091 3091 3091 3091 3091 3092 3092 3092 3092 3093 3093 3093 3094 3095 3095 3095 3096 3096 3097 3097 3097 3098 3098 3098 3098 3098 3098 3098 3099 3100 3100 3101 3102 3103 3104 3105 3106 3107 3108 3109 3111 3112 3113 3114 3115 3116 3118 3119 3120 3122 3123 3123 3124 3125 3126 3126 3127 3128 3129 3130 3131 3132 3133 3134 3135 3136 3136 3137 3137 3138 3139 3140 3140 3140 3141 3143 3143 3144
3087 3087 3087 3088 3088 3088 3087 3087 3087 3087 3087 3087 3088 3087 3087 3087 3087 3087 3087 3087 3087 3088 3088 3087 3087 3088 3088 3088 3088 3088 3088 3089 3089 3089 3089 3090 3091 3091 3092 3092 3093 3093 3093 3094 3094 3094 3095 3096 3096 3096 3096 3097 3096 3097 3098 3098 3098 3099 3100 3101 3102 3103 3104 3106 3107 3108 3108 3110 3111 3112 3113 3115 3116 3118 3119 3120 3121 3122 3123 3123 3124 3125 3126 3127 3128 3129 3131 3131 3132 3133 3133 3134 3134 3136 3137 3138 3138 3138 3138 3139 3140 3141 3143
3082 3083 3083 3083 3084 3084 3084 3083 3083 3084 3084 3084 3084 3084 3084 3084 3084 3084 3084 3084 3084 3084 3084 3084 3084 3084 3084 3085 3085 3085 3085 3086 3086 3086 3087 3087 3088 3088 3088 3089 3089 3090 3090 3091 3092 3092 3093 3093 3094 3094 3094 3094 3094 3094 3094 3096 3096 3097 3098 3098 3099 3101 3102 3103 3103 3104 3105 3106 3108 3109 3111 3112 3113 3115 3116 3117 3118 3119 3120 3121 3122 3123 3123 3125 3126 3127 3129 3129 3130 3131 3131 3132 3133 3134 3136 3136 3136 3137 3136 3137 3138 3139 3141
3078 3078 3078 3079 3079 3079 3080 3080 3080 3080 3080 3081 3081 3081 3081 3081 3081 3080 3081 3081 3081 3081 3082 3081 3081 3081 3081 3082 3082 3082 3083 3083 3083 3083 3083 3084 3084 3085 3085 3086 3086 3087 3087 3088 3089 3089 3090 3091 3091 3092 3092 3092 3092 3092 3092 3093 3094 3094 3095 3096 3097 3098 3099 3100 3101 3101 3102 3103 3104 3106 3108 3109 3110 3112 3113 3115 3116 3117 3118 3118 3119 3120 3121 3122 3123 3125 3126 3128 3128 3129 3129 3130 3132 3133 3133 3133 3134 3135 3135 3135 3136 3138 3139
3073 3073 3074 3074 3075 3075 3075 3075 3075 3076 3076 3077 3077 3077 3078 3077 3077 3077 3077 3077 3078 3078 3078 3078 3078 3078 3078 3078 3078 3079 3079 3079 3080 3080 3080 3080 3081 3082 3082 3082 3083 3083 3084 3085 3085 3086 3087 3088 3088 3089 3089 3089 3089 3090 3090 3091 3091 3092 3093 3093 3094 3095 3096 3097 3098 3098 3099 3100 3101 3103 3104 3106 3107 3109 3110 3112 3113 3114 3115 3116 3117 3118 3119 3120 3121 3122 3124 3125 3126 3127 3128 3128 3129 3130 3131 3132 3133 3134 3134 3134 3135 3136 3137
3068 3068 3069 3069 3070 3070 3071 3071 3071 3072 3072 3072 3073 3073 3073 3073 3073 3073 3073 3073 3074 3074 3074 3075 3075 3075 3074 3074 3075 3075 3076 3076 3077 3077 3077 3077 3078 3078 3079 3079 3079 3080 3081 3081 3082 3083 3084 3085 3086 3086 3086 3087 3087 3088 3088 3088 3089 3090 3090 3091 3091 3092 3093 3094 3095 3095 3096 3097 3098 3099 3101 3102 3104 3106 3107 3109 3110 3112 3113 3113 3115 3116 3116 3117 3118 3120 3121 3122 3123 3125 3126 3126 3127 3128 3129 3129 3131 3132 3133 3133 3134 3135 3136
3063 3064 3064 3064 3065 3065 3066 3066 3066 3067 3067 3068 3068 3069 3069 3069 3070 3070 3070 3070 3070 3070 3070 3071 3072 3072 3071 3071 3071 3072 3073 3073 3073 3073 3073 3074 3074 3075 3075 3075 3076 3077 3077 3078 3078 3080 3081 3081 3082 3083 3083 3084 3084 3085 3085 3086 3087 3087 3087 3088 3088 3089 3090 3091 3092 3093 3093 3094 3095 3096 3097 3099 3101 3102 3104 3105 3107 3108 3110 3111 3112 3113 3114 3115 3116 3117 3118 3120 3121 3122 3123 3124 3125 3126 3127 3128 3128 3129 3130 3131 3132 3133 3134
3058 3059 3059 3059 3060 3060 3060 3060 3061 3061 3062 3063 3063 3064 3064 3065 3065 3066 3066 3066 3066 3066 3066 3067 3068 3068 3068 3068 3068 3068 3068 3069 3070 3070 3070 3070 3070 3071 3071 3072 3073 3073 3073 3074 3075 3076 3077 3078 3079 3079 3080 3081 3081 3082 3082 3083 3083 3084 3084 3085 3085 3086 3087 3088 3089 3090 3090 3091 3092 3093 3094 3096 3097 3099 3100 3102 3103 3105 3107 3108 3109 3111 3112 3113 3113 3114 3115 3117 3118 3119 3121 3122 3123 3124 3125 3126 3127 3127 3128 3129 3130 3131 3132
3054 3054 3054 3054 3055 3055 3055 3055 3056 3056 3057 3057 3058 3059 3059 3060 3061 3061 3061 3062 3062 3062 3062 3063 3063 3064 3064 3065 3065 3065 3065 3066 3066 3066 3066 3066 3066 3067 3067 3068 3069 3070 3070 3071 3072 3073 3073 3074 3075 3076 3077 3078 3078 3079 3079 3080 3080 3081 3082 3082 3083 3083 3084 3085 3086 3087 3088 3088 3089 3090 3091 3092 3093 3095 3097 3098 3100 3101 3103 3105 3106 3108 3109 3110 3111 3112 3113 3114 3115 3117 3118 3119 3120 3122 3123 3124 3124 3125 3126 3127 3128 3129 3130
3049 3049 3049 3049 3049 3050 3050 3050 3050 3051 3051 3052 3053 3053 3054 3055 3055 3056 3056 3057 3057 3057 3058 3058 3059 3059 3060 3061 3061 3061 3062 3062 3062 3062 3062 3062 3062 3063 3063 3064 3065 3066 3067 3068 3068 3069 3070 3071 3071 3072 3073 3074 3075 3076 3076 3077 3077 3078 3078 3079 3080 3081 3081 3082 3083 3084 3085 3085 3086 3087 3088 3089 3090 3092 3093 3094 3096 3098 3100 3101 3103 3104 3106 3107 3108 3109 3110 3111 3113 3114 3115 3117 3118 3119 3120 3122 3123 3124 3125 3126 3127 3127 3128
3044 3044 3044 3044 3044 3044 3045 3045 3045 3046 3046 3047 3047 3048 3048 3049 3050 3051 3051 3051 3052 3052 3053 3054 3054 3055 3055 3056 3057 3058 3058 3058 3058 3059 3059 3058 3058 3058 3060 3061 3061 3062 3063 3064 3065 3066 3066 3067 3068 3068 3069 3071 3072 3073 3073 3074 3074 3075 3075 3076 3077 3078 3078 3079 3080 3081 3082 3082 3083 3084 3085 3086 3087 3088 3089 3091 3093 3094 3096 3098 3099 3101 3103 3104 3105 3106 3107 3108 3110 3111 3113 3114 3115 3117 3118 3119 3121 3123 3123 3123 3124 3125 3126
3041 3040 3039 3039 3039 3039 3039 3040 3040 3040 3041 3041 3042 3042 3043 3044 3045 3045 3046 3046 3046 3047 3048 3049 3049 3050 3051 3052 3053 3053 3054 3054 3054 3055 3056 3055 3054 3054 3054 3056 3057 3058 3059 3060 3061 3062 3062 3063 3064 3065 3066 3067 3068 3069 3070 3071 3071 3072 3072 3073 3074 3075 3076 3077 3077 3078 3078 3079 3080 3081 3082 3083 3084 3085 3086 3088 3089 3091 3093 3094 3096 3098 3099 3101 3102 3103 3104 3106 3107 3108 3110 3111 3113 3114 3115 3117 3118 3119 3121 3121 3122 3123 3124
3037 3036 3035 3035 3035 3035 3035 3035 3035 3035 3035 3036 3036 3037 3038 3038 3039 3040 3040 3041 3041 3041 3043 3043 3044 3045 3046 3047 3048 3049 3050 3050 3051 3051 3051 3050 3051 3051 3050 3051 3052 3053 3054 3056 3057 3058 3059 3059 3060 3061 3063 3063 3065 3066 3067 3068 3068 3069 3069 3070 3071 3072 3073 3073 3074 3075 3075 3076 3077 3078 3079 3080 3081 3082 3083 3084 3086 3087 3089 3091 3092 3094 3096 3098 3099 3100 3101 3103 3104 3106 3107 3108 3110 3111 3113 3114 3115 3117 3118 3119 3121 3122 3123
3033 3032 3032 3031 3031 3031 3030 3030 3030 3030 3030 3031 3031 3032 3033 3033 3034 3034 3035 3035 3036 3036 3037 3037 3038 3039 3041 3042 3042 3044 3045 3046 3047 3047 3047 3046 3047 3048 3048 3048 3047 3048 3049 3051 3053 3053 3055 3056 3056 3058 3059 3060 3061 3062 3063 3064 3065 3065 3066 3067 3067 3068 3069 3070 3071 3071 3072 3073 3074 3075 3076 3077 3078 3079 3080 3081 3083 3084 3086 3087 3089 3090 3092 3094 3095 3097 3098 3099 3101 3103 3104 3106 3107 3108 3110 3111 3113 3114 3115 3117 3118 3119 3120
3029 3029 3028 3028 3027 3027 3027 3027 3026 3026 3026 3026 3027 3027 3028 3028 3029 3029 3029 3030 3030 3031 3032 3032 3033 3033 3035 3036 3037 3038 3040 3041 3042 3043 3043 3043 3044 3045 3046 3046 3044 3043 3044 3047 3047 3048 3051 3052 3053 3054 3055 3056 3057 3058 3059 3060 3061 3062 3063 3063 3064 3065 3066 3066 3067 3068 3068 3070 3071 3072 3073 3074 3075 3076 3077 3078 3079 3081 3082 3084 3085 3087 3088 3090 3092 3093 3095 3096 3098 3099 3101 3103 3104 3105 3106 3108 3109 3111 3112 3114 3115 3117 3118
3026 3025 3025 3024 3023 3023 3023 3023 3022 3022 3022 3022 3022 3023 3023 3023 3024 3024 3024 3025 3025 3026 3026 3027 3028 3028 3030 3031 3032 3033 3035 3036 3038 3038 3039 3040 3041 3042 3042 3043 3041 3040 3040 3043 3043 3043 3045 3048 3049 3050 3051 3053 3054 3054 3055 3056 3057 3058 3059 3060 3061 3061 3062 3063 3063 3064 3065 3067 3068 3069 3070 3071 3072 3073 3074 3075 3076 3078 3079 3080 3082 3083 3085 3087 3088 3090 3091 3093 3094 3096 3098 3099 3100 3102 3103 3105 3106 3108 3109 3111 3112 3114 3115
3023 3023 3022 3021 3020 3020 3019 3019 3019 3018 3018 3018 3018 3018 3019 3019 3019 3019 3020 3021 3021 3021 3022 3022 3023 3024 3025 3026 3027 3028 3030 3032 3033 3034 3035 3036 3037 3038 3038 3039 3039 3038 3037 3038 3038 3038 3040 3042 3044 3046 3047 3049 3050 3051 3051 3053 3053 3054 3056 3056 3057 3058 3059 3059 3060 3061 3062 3063 3064 3066 3067 3068 3068 3069 3071 3072 3073 3074 3075 3077 3078 3080 3081 3083 3084 3086 3088 3089 3091 3093 3094 3096 3097 3098 3100 3101 3103 3104 3106 3108 3109 3110 3112
3021 3020 3019 3018 3017 3017 3016 3016 3015 3015 3015 3015 3015 3015 3015 3015 3015 3015 3016 3017 3017 3017 3018 3018 3019 3019 3020 3021 3022 3023 3025 3026 3028 3029 3031 3031 3033 3034 3034 3036 3037 3036 3034 3033 3033 3035 3036 3037 3039 3041 3042 3045 3046 3047 3048 3048 3050 3051 3052 3053 3053 3054 3055 3056 3057 3058 3059 3060 3061 3062 3063 3064 3065 3066 3068 3068 3070 3071 3072 3073 3075 3076 3078 3079 3081 3082 3084 3086 3088 3089 3091 3092 3094 3095 3097 3098 3100 3102 3103 3105 3106 3108 3109
3018 3018 3017 3016 3015 3014 3013 3013 3012 3012 3012 3012 3011 3011 3011 3011 3012 3012 3012 3013 3013 3013 3013 3014 3014 3015 3015 3016 3017 3018 3019 3021 3023 3024 3026 3027 3028 3029 3030 3031 3032 3033 3032 3030 3030 3032 3032 3033 3035 3036 3036 3039 3042 3043 3044 3045 3046 3047 3048 3049 3050 3051 3052 3053 3054 3055 3055 3057 3058 3058 3060 3061 3062 3063 3064 3065 3067 3068 3069 3070 3071 3073 3074 3076 3077 3078 3080 3082 3084 3086 3087 3089 3090 3092 3093 3095 3097 3098 3100 3102 3103 3105 3106
3016 3015 3014 3014 3013 3012 3011 3010 3009 3009 3009 3008 3008 3008 3008 3008 3008 3008 3008 3008 3009 3009 3009 3010 3010 3010 3011 3012 3012 3013 3014 3016 3018 3019 3021 3022 3023 3025 3026 3026 3026 3027 3028 3027 3028 3028 3029 3030 3032 3032 3032 3035 3037 3038 3040 3041 3042 3043 3044 3045 3047 3048 3049 3050 3051 3052 3053 3053 3054 3056 3057 3058 3059 3060 3061 3062 3063 3064 3066 3067 3068 3069 3071 3072 3073 3075 3077 3079 3080 3082 3084 3085 3087 3089 3090 3092 3094 3096 3097 3099 3100 3102 3103
3014 3013 3013 3012 3011 3010 3009 3008 3008 3007 3006 3006 3005 3005 3005 3005 3004 3004 3004 3005 3005 3005 3005 3006 3006 3006 3007 3008 3008 3009 3009 3010 3012 3014 3016 3018 3019 3020 3021 3022 3022 3023 3023 3023 3024 3025 3026 3027 3027 3028 3030 3031 3032 3032 3035 3037 3038 3039 3040 3042 3043 3044 3045 3046 3047 3048 3049 3050 3051 3053 3053 3054 3056 3057 3058 3059 3060 3061 3063 3063 3065 3066 3068 3069 3070 3071 3073 3075 3077 3078 3080 3082 3083 3085 3087 3089 3091 3092 3094 3095 3097 3099 3100
3012 3011 3011 3010 3009 3008 3007 3006 3006 3005 3004 3003 3003 3003 3002 3002 3001 3001 3001 3001 3001 3002 3002 3002 3002 3002 3003 3004 3004 3004 3005 3006 3007 3009 3011 3013 3014 3015 3017 3018 3018 3019 3019 3019 3020 3022 3023 3023 3024 3025 3027 3028 3028 3028 3030 3032 3033 3035 3036 3038 3039 3040 3041 3043 3043 3045 3046 3047 3048 3049 3050 3051 3053 3053 3054 3056 3057 3058 3059 3060 3062 3063 3064 3065 3067 3068 3070 3072 3074 3075 3077 3078 3080 3082 3084 3085 3087 3089 3091 3092 3093 3095 3097
3010 3009 3008 3007 3007 3006 3005 3004 3003 3003 3002 3001 3001 3000 2999 2999 2998 2998 2998 2998 2998 2998 2998 2998 2998 2999 3000 3000 3000 3001 3001 3002 3003 3005 3006 3008 3008 3010 3013 3014 3014 3014 3015 3016 3017 3018 3019 3019 3021 3023 3024 3023 3024 3025 3026 3026 3028 3030 3032 3033 3035 3037 3038 3039 3040 3041 3043 3044 3045 3046 3047 3048 3049 3050 3051 3053 3053 3055 3056 3057 3058 3059 3061 3062 3063 3065 3067 3068 3070 3072 3073 3075 3077 3078 3080 3082 3084 3085 3087 3088 3090 3092 3093